Temp_Advection
nan nan nan nan nan nan nan nan nan nan nan nan nan nan nan nan nan nan nan nan nan nan nan nan nan nan nan nan nan nan nan nan nan nan nan nan nan nan nan nan nan nan nan
nan 0 -0 0 0 -0 0 -0 -0 -0 0 0 0 0 0 0 -0 0 0 -0 -0 -0 0 0 0 0 0 0 0 -0 -0 -0 -0 0 0 0 0 -0 -0 -0 0 -0 nan
nan -0 0 0 0 0 0 -0 0 0 0 0 -0 0 0 -0 0 0 0 -0 -0 0 0 0 0 0 0 0 0 0 0 0 0 0 1 1 0 -0 -0 -0 -0 0 nan
nan 0 1 0 1 0 0 0 1 1 0 0 0 0 0 0 0 0 0 -0 -0 0 1 0 0 0 0 0 0 0 -0 0 0 1 1 1 0 -0 -0 -0 0 0 nan
nan -0 0 0 0 1 1 0 0 1 0 0 0 0 0 0 0 0 0 0 0 0 0 0 0 1 0 0 0 0 -0 0 0 0 0 0 0 -0 -0 -0 0 0 nan
nan -0 -0 0 0 0 -0 -1 0 0 0 0 0 0 0 0 0 0 0 0 0 -0 0 0 0 0 0 0 0 -0 -0 -0 0 0 0 0 0 -0 -0 0 -0 -0 nan
nan -0 0 -0 -0 -1 -1 0 1 1 0 0 0 0 0 0 -0 0 0 0 0 -0 0 0 0 0 0 0 -0 -0 -0 -0 0 0 -0 -0 -0 0 0 0 0 0 nan
nan -0 0 -0 -0 -0 0 1 0 -0 0 0 0 -0 0 -0 -0 0 0 0 -0 -0 0 0 0 0 0 -0 -0 -0 0 0 1 0 -0 0 -0 0 0 0 0 0 nan
nan -1 -0 0 0 -0 -0 -0 0 1 1 0 0 0 -0 -0 -0 0 0 0 -0 -0 0 0 0 0 0 -0 -0 -0 0 0 0 0 0 0 0 0 0 0 0 0 nan
nan -1 -0 0 -0 0 -0 -0 0 1 -0 -0 0 0 -0 -0 0 0 0 0 0 0 0 -0 0 0 -0 -0 -0 -0 0 0 0 0 0 0 0 0 0 0 0 1 nan
nan -1 -1 -1 -0 -0 -0 -0 1 -0 0 1 1 0 0 1 0 -0 -0 0 -0 0 -0 -0 0 0 -0 -0 -0 0 0 -0 0 0 0 0 -0 0 0 0 0 0 nan
nan -1 -1 -1 -1 -0 0 0 -0 0 1 -0 0 -0 1 0 -0 -0 -0 -0 0 0 -0 0 -0 0 0 -0 0 0 0 0 0 0 -0 0 0 0 0 0 0 0 nan
nan -3 -2 -1 -1 -0 0 0 0 -0 -0 1 0 -0 0 -0 -0 -0 0 0 1 0 0 -1 -0 0 -0 -0 0 0 0 0 0 0 0 0 0 0 0 0 0 0 nan
nan -3 -3 -3 -1 -1 -0 0 0 0 0 0 -0 -0 0 -0 -1 -0 -0 1 -0 0 -1 -1 -0 -0 0 0 0 0 0 0 0 -0 0 0 0 0 0 0 0 0 nan
nan -2 -3 -3 -2 -1 -1 -0 -0 -1 0 0 -0 0 1 -0 0 -1 -0 0 0 -0 -1 -1 -0 0 0 0 0 0 0 0 0 -0 -0 0 0 0 0 0 0 0 nan
nan -2 -2 -2 -3 -2 -1 -1 -1 0 0 -0 0 0 0 0 -0 -1 1 1 0 -0 -0 -0 0 0 1 1 0 0 0 -0 -0 -0 0 0 0 0 0 0 0 0 nan
nan -1 -2 -2 -3 -3 -2 -2 -1 -0 -1 -0 -0 -0 -0 -0 -1 -1 -0 1 1 0 0 0 -0 1 1 0 0 0 -1 0 1 -0 0 1 0 -0 0 0 0 0 nan
nan -1 -2 -1 -2 -2 -2 -3 -2 -1 -1 -0 0 0 -0 0 -1 -1 -1 0 1 1 0 0 -0 0 0 0 1 -0 0 1 0 0 1 0 -0 0 0 0 0 0 nan
nan -0 -1 -1 -1 -2 -3 -4 -3 -1 -0 -0 -0 -1 -0 0 0 -0 -1 1 1 1 1 1 0 0 0 1 1 -0 1 0 -0 0 0 0 -0 -0 -0 0 0 0 nan
nan -1 -1 -1 -1 -2 -3 -3 -1 -1 -2 -1 -1 -1 0 -0 1 0 0 0 2 2 0 0 0 -0 0 1 1 0 0 -0 0 0 0 0 0 0 0 -0 0 0 nan
nan -0 -1 -1 -1 -1 -2 -2 -1 -2 -2 -1 -1 0 -0 -0 0 0 -0 0 1 -0 0 0 -0 0 1 0 -0 0 0 1 1 0 0 0 0 -0 -0 0 0 -0 nan
nan -1 -1 -1 -1 -1 -1 -1 -2 -1 -2 -2 -1 -1 -1 -0 -0 -0 -1 -0 0 0 -0 -1 -0 0 -0 0 -0 0 1 1 -0 -0 0 0 0 0 0 0 0 0 nan
nan -0 -1 -1 -1 -1 -1 -1 -1 -2 -3 -2 -1 -2 -1 0 -0 -0 -0 0 0 -0 -0 0 1 1 -0 -0 1 1 1 0 -0 0 0 0 -0 -0 0 1 1 0 nan
nan -0 -1 -1 -1 -1 -0 -1 -1 -2 -3 -3 -2 -2 -0 -0 -0 -0 0 1 0 1 1 1 0 -0 0 1 1 0 0 1 1 0 -0 -0 -0 0 1 1 0 0 nan
nan -0 -0 -1 -1 -1 -0 -0 -1 -2 -2 -3 -2 -1 -0 -1 -1 -0 0 0 1 0 0 1 1 1 1 1 0 1 0 0 0 -0 1 0 -1 -0 0 1 1 0 nan
nan nan nan nan nan nan nan nan nan nan nan nan nan nan nan nan nan nan nan nan nan nan nan nan nan nan nan nan nan nan nan nan nan nan nan nan nan nan nan nan nan nan nan
Wind_Speed
35 33 32 28 27 23 21 18 18 16 15 15 15 15 15 14 13 11 11 12 15 19 20 19 16 13 13 15 15 12 15 15 11 10 8 8 9 6 4 4 4 4 4
33 37 35 31 29 29 26 21 21 18 17 17 17 16 16 16 12 11 10 11 12 18 23 23 21 18 16 14 12 10 8 7 7 10 9 11 7 6 4 5 5 4 3
33 35 35 33 33 29 28 25 24 20 18 19 19 17 17 18 14 13 11 13 11 17 24 26 24 21 19 16 9 7 11 8 9 14 16 15 13 8 8 7 6 5 3
24 41 35 37 34 29 28 28 28 26 21 22 21 20 19 18 16 14 13 13 13 11 23 24 25 22 21 14 13 11 10 15 19 18 16 14 14 11 10 9 7 6 5
25 20 26 29 24 33 30 28 31 32 26 23 23 22 21 20 17 15 14 13 11 9 12 20 25 24 20 12 12 10 10 16 13 13 15 16 15 13 11 10 8 7 6
22 21 23 24 30 40 39 40 35 34 33 26 23 22 22 21 18 18 16 15 15 14 15 15 14 14 13 12 10 11 16 15 13 13 13 12 11 13 13 11 10 8 7
25 21 22 27 28 35 34 38 33 38 37 30 26 21 22 22 20 18 19 18 18 19 18 15 19 17 18 18 16 16 20 22 21 15 9 8 8 12 12 11 11 10 9
21 27 25 20 32 32 35 41 40 37 39 40 34 26 18 21 31 22 20 21 22 23 22 18 18 18 15 15 19 18 20 21 23 16 9 6 5 8 11 11 11 11 11
22 22 28 29 24 32 33 35 35 44 44 45 43 24 15 15 23 26 27 24 24 28 27 24 23 18 15 16 18 17 20 24 25 19 14 9 10 7 6 9 12 12 12
24 24 23 27 27 31 35 35 36 41 42 46 46 42 21 17 22 15 26 30 24 25 27 26 26 21 16 20 21 19 18 16 20 17 17 11 16 13 11 11 12 13 13
18 23 26 26 24 29 36 36 37 40 44 43 42 45 37 26 21 16 15 27 29 30 26 30 29 22 20 24 24 25 20 19 20 15 18 17 19 16 14 11 10 12 14
25 21 20 29 26 26 28 37 39 38 41 42 43 44 47 38 28 23 18 27 35 34 37 33 33 29 25 23 27 24 25 22 19 18 19 20 21 18 16 16 15 11 10
27 25 24 23 33 28 28 32 37 41 41 43 43 43 42 45 38 35 25 15 21 23 33 38 37 35 33 29 22 27 24 25 24 25 24 23 20 20 21 21 19 19 15
26 27 26 26 27 35 29 32 32 39 40 40 41 45 39 41 45 44 42 31 18 26 29 32 42 40 35 32 28 22 26 26 26 25 26 25 24 24 22 22 21 22 21
24 26 27 27 27 31 36 32 34 34 41 41 40 41 43 40 40 46 47 40 33 21 27 27 25 37 40 36 32 28 25 25 28 29 28 27 26 25 24 25 24 23 22
25 26 26 25 29 30 33 37 35 33 43 42 43 43 44 43 41 42 45 46 39 32 24 29 26 23 28 38 36 34 30 29 27 29 30 30 29 30 28 28 27 27 26
26 25 26 26 27 30 31 40 40 30 41 46 44 43 45 45 45 43 43 44 43 38 32 25 28 27 27 26 31 30 28 29 31 29 29 30 30 31 31 32 31 30 31
24 25 26 26 26 28 32 37 44 39 34 44 47 46 45 44 48 46 45 43 44 45 42 35 33 31 29 29 30 29 32 34 32 33 32 31 31 33 33 34 34 35 36
24 24 24 25 26 25 30 36 41 41 39 39 44 48 50 47 48 50 48 45 43 43 43 39 39 38 33 35 36 33 32 32 32 32 33 34 34 34 34 33 33 33 33
24 23 24 24 26 25 26 32 40 39 49 36 42 46 51 55 50 50 48 46 43 43 42 38 39 35 34 36 38 37 34 31 32 32 31 31 31 33 34 33 34 34 35
23 22 23 23 25 24 21 22 33 38 43 48 39 46 52 53 54 50 49 46 44 42 41 39 40 37 38 40 40 36 35 33 33 32 31 30 31 33 36 34 34 33 33
22 22 22 23 23 21 17 15 30 34 44 47 43 47 50 52 56 52 52 45 46 45 44 42 42 41 44 41 37 35 34 34 33 32 31 30 30 31 30 29 31 33 36
23 22 22 23 22 19 13 12 17 32 42 48 54 49 50 57 54 51 46 42 46 41 41 40 41 40 37 39 37 34 35 32 32 28 26 23 24 28 30 32 31 27 28
22 21 21 21 19 15 11 14 15 23 41 49 47 47 54 47 57 49 46 44 46 42 39 38 37 36 34 31 32 33 30 29 29 28 25 29 27 30 28 27 28 32 32
20 21 21 21 15 13 10 14 15 16 24 40 42 51 55 54 53 51 48 47 45 42 39 39 36 34 29 29 27 29 28 26 28 30 29 30 29 30 31 31 29 27 28
20 19 22 18 11 14 13 14 15 8 18 32 44 50 60 57 54 52 50 50 46 47 41 34 33 28 27 28 28 27 26 27 29 27 27 29 30 25 26 29 26 22 21
Wind_Direction
226 236 227 219 216 202 206 202 201 205 203 197 194 191 194 201 192 207 218 223 217 213 209 207 190 178 143 149 157 157 179 190 191 209 225 250 266 284 275 228 197 171 154
241 224 228 222 219 215 205 205 210 206 204 200 198 196 200 199 203 211 213 238 234 215 212 205 192 177 159 155 187 205 184 185 205 223 243 264 236 280 285 213 198 192 172
243 235 227 225 225 219 218 217 219 213 207 206 204 204 206 202 207 213 220 249 252 222 202 199 194 189 171 164 173 211 238 248 262 262 255 269 268 266 265 214 204 201 183
260 247 223 224 215 224 225 225 226 216 206 208 206 206 203 206 207 212 222 248 244 180 186 192 194 188 183 181 186 202 240 261 276 257 265 269 255 249 242 221 212 205 206
249 266 254 237 211 221 225 228 232 225 212 208 206 207 204 205 208 215 218 229 242 236 181 182 190 184 185 202 222 224 264 285 265 233 270 289 249 227 215 218 213 216 221
237 243 254 256 228 228 235 227 232 226 218 211 205 206 206 207 214 220 220 221 227 236 219 223 226 229 229 225 231 238 257 287 227 229 272 283 263 228 214 211 218 224 228
236 237 231 248 243 239 235 224 226 228 221 210 203 201 208 210 218 220 218 223 221 226 231 234 244 244 235 236 243 251 254 261 240 223 258 286 257 227 222 221 223 225 230
245 226 217 231 243 240 238 232 227 228 226 216 201 205 207 219 220 220 223 220 221 225 234 236 249 241 226 239 247 242 244 238 221 221 218 268 281 247 227 231 227 228 230
262 241 220 228 237 239 237 236 234 230 223 219 215 196 194 213 215 224 221 219 216 226 228 232 247 242 236 228 223 226 217 222 221 213 228 240 261 274 268 244 236 231 232
264 258 238 222 222 235 238 236 236 229 232 222 217 212 209 211 199 207 219 220 218 220 222 225 238 239 235 222 218 225 234 227 220 227 230 232 252 255 266 281 279 248 238
279 264 254 235 221 223 236 237 234 224 224 226 229 214 211 208 207 208 207 209 215 218 219 226 230 229 233 231 222 225 230 232 237 235 230 244 249 246 238 253 269 286 252
285 270 266 246 233 221 222 236 237 235 230 229 231 229 225 212 209 208 214 212 216 220 221 225 224 227 231 239 229 224 227 239 249 248 243 241 242 245 246 253 249 262 289
297 281 272 261 244 230 220 220 228 233 233 228 227 225 228 227 218 217 213 202 204 210 223 225 226 228 233 236 236 229 230 232 238 243 242 242 245 252 258 258 256 259 259
305 293 281 266 256 242 230 219 220 227 232 230 229 226 222 230 231 221 225 212 200 209 224 229 229 231 235 237 234 232 232 234 235 243 242 245 248 248 251 255 255 253 260
306 301 287 274 263 253 243 227 221 229 226 231 231 232 225 232 236 230 233 224 221 212 218 218 223 229 230 234 234 233 232 238 238 239 246 245 248 246 246 252 255 257 258
302 303 294 281 270 258 251 243 223 224 232 229 229 229 231 229 232 235 234 229 225 226 228 232 232 234 230 232 231 232 236 242 234 235 239 243 244 246 246 249 252 253 255
303 302 298 288 278 266 257 247 233 225 231 233 228 224 226 224 231 234 233 235 227 226 230 239 241 234 239 238 230 223 216 224 234 225 224 227 235 241 243 246 248 251 256
301 301 298 291 285 270 264 256 236 229 241 228 231 231 230 223 226 233 231 232 235 233 228 232 238 234 234 223 220 217 226 236 234 232 235 236 237 241 246 249 250 251 252
300 299 298 294 289 274 266 255 245 235 231 235 231 232 230 225 221 225 230 232 233 234 237 234 238 231 231 226 225 226 233 233 235 239 240 240 243 245 246 248 251 254 256
302 299 299 297 289 280 271 259 245 244 233 236 236 235 232 228 219 220 228 230 232 231 234 233 234 233 229 224 224 230 228 229 235 238 238 240 244 247 249 250 256 258 258
303 299 298 299 291 282 272 253 246 242 235 230 236 235 229 230 224 221 223 228 228 227 225 226 227 233 231 218 219 222 228 229 237 238 242 247 248 249 252 255 257 259 260
305 302 297 299 293 282 276 258 251 244 239 233 230 236 228 224 222 220 225 233 229 223 225 223 226 229 233 228 220 223 222 227 236 239 242 246 251 254 255 259 260 263 265
308 305 299 299 299 284 281 287 251 240 235 232 228 234 224 219 221 220 228 229 226 230 229 227 225 225 224 221 222 221 224 230 234 238 244 246 250 261 268 267 266 267 270
305 308 306 304 304 292 302 307 291 250 239 233 226 227 224 220 212 226 219 221 224 224 224 223 229 228 224 225 223 230 239 237 239 242 243 256 267 274 273 272 263 268 273
308 312 310 309 308 302 314 321 322 270 258 245 226 226 222 219 220 217 214 214 219 221 217 218 220 220 221 219 222 223 228 231 232 235 244 258 266 273 272 272 274 272 276
309 315 310 312 311 325 332 332 346 278 245 234 226 223 214 205 218 216 215 209 213 212 204 203 200 204 211 213 214 223 227 234 241 250 254 262 270 275 282 284 282 277 282
Height
1497 1504 1509 1511 1514 1517 1521 1522 1524 1527 1531 1533 1535 1536 1538 1540 1541 1543 1544 1543 1544 1546 1548 1549 1552 1553 1554 1557 1560 1561 1562 1564 1566 1568 1569 1569 1569 1569 1569 1568 1569 1569 1569
1495 1497 1501 1506 1509 1511 1515 1518 1520 1524 1528 1530 1532 1534 1536 1537 1540 1542 1542 1541 1541 1543 1546 1548 1551 1552 1554 1556 1560 1560 1562 1564 1566 1568 1569 1568 1569 1569 1569 1568 1569 1570 1570
1491 1489 1492 1498 1503 1505 1508 1512 1516 1521 1525 1528 1530 1533 1534 1535 1539 1540 1540 1538 1539 1540 1543 1545 1549 1551 1553 1555 1558 1561 1562 1564 1566 1568 1569 1568 1568 1568 1568 1568 1569 1569 1570
1482 1471 1476 1488 1491 1500 1504 1507 1511 1516 1520 1523 1527 1529 1531 1533 1536 1538 1538 1537 1537 1536 1540 1544 1547 1549 1552 1553 1556 1558 1560 1563 1564 1565 1566 1567 1567 1567 1567 1568 1568 1569 1570
1478 1476 1474 1471 1479 1488 1498 1500 1506 1511 1516 1518 1523 1525 1527 1529 1533 1535 1536 1536 1536 1537 1539 1542 1545 1547 1549 1552 1554 1556 1557 1559 1560 1563 1565 1564 1563 1565 1565 1566 1568 1569 1569
1475 1475 1476 1479 1479 1487 1489 1492 1499 1506 1511 1514 1518 1521 1523 1526 1529 1531 1534 1535 1535 1536 1539 1540 1542 1545 1548 1550 1552 1554 1555 1557 1559 1561 1563 1562 1562 1562 1563 1565 1567 1568 1569
1469 1471 1473 1476 1480 1480 1483 1488 1495 1502 1504 1508 1513 1517 1520 1521 1524 1527 1530 1531 1532 1534 1535 1538 1540 1542 1545 1546 1548 1551 1553 1554 1557 1559 1560 1560 1560 1560 1562 1564 1565 1566 1567
1463 1466 1468 1469 1474 1477 1480 1484 1490 1493 1497 1501 1503 1512 1514 1518 1518 1522 1525 1527 1528 1530 1532 1534 1535 1539 1542 1543 1544 1546 1549 1551 1553 1555 1557 1559 1560 1560 1561 1562 1563 1564 1565
1457 1459 1461 1465 1467 1471 1474 1478 1481 1484 1488 1492 1497 1501 1506 1506 1512 1515 1518 1520 1523 1525 1529 1531 1533 1535 1536 1539 1540 1542 1544 1548 1551 1552 1554 1557 1559 1560 1560 1561 1562 1562 1562
1452 1452 1454 1457 1461 1466 1469 1470 1475 1479 1482 1483 1490 1492 1497 1501 1504 1509 1511 1514 1519 1520 1524 1526 1529 1531 1533 1534 1537 1538 1542 1544 1547 1550 1552 1554 1557 1558 1559 1560 1561 1560 1560
1446 1445 1447 1448 1452 1457 1462 1464 1467 1471 1473 1478 1480 1483 1490 1493 1498 1501 1502 1506 1511 1514 1518 1521 1524 1526 1529 1530 1533 1535 1538 1542 1546 1547 1550 1551 1553 1554 1556 1557 1558 1558 1559
1440 1440 1440 1441 1442 1446 1451 1457 1460 1462 1465 1470 1472 1476 1479 1484 1489 1493 1497 1498 1501 1505 1510 1514 1518 1521 1524 1526 1529 1532 1535 1538 1540 1543 1547 1549 1550 1551 1553 1554 1556 1556 1556
1433 1432 1432 1434 1434 1436 1441 1446 1451 1453 1456 1460 1464 1469 1473 1477 1484 1487 1492 1495 1497 1501 1502 1507 1511 1514 1518 1521 1524 1528 1531 1534 1538 1540 1543 1545 1547 1548 1550 1551 1552 1553 1553
1430 1427 1425 1425 1427 1428 1431 1435 1439 1445 1448 1451 1456 1460 1465 1468 1474 1478 1483 1487 1491 1493 1495 1499 1503 1507 1512 1515 1519 1523 1525 1529 1533 1535 1538 1540 1543 1545 1546 1547 1548 1549 1549
1426 1422 1419 1416 1418 1419 1422 1425 1430 1434 1439 1443 1446 1452 1456 1460 1465 1469 1475 1479 1484 1487 1489 1492 1495 1500 1504 1508 1512 1517 1520 1525 1528 1530 1532 1535 1537 1540 1542 1543 1544 1544 1545
1419 1416 1413 1410 1411 1411 1413 1417 1419 1425 1430 1433 1438 1442 1447 1452 1456 1461 1466 1471 1476 1481 1484 1487 1490 1494 1499 1502 1504 1508 1512 1518 1521 1523 1525 1528 1531 1533 1536 1537 1538 1538 1539
1413 1410 1407 1404 1403 1404 1404 1407 1410 1414 1420 1424 1427 1432 1438 1443 1446 1451 1457 1462 1467 1472 1477 1481 1485 1488 1492 1496 1498 1501 1504 1508 1511 1514 1516 1518 1521 1525 1528 1531 1533 1533 1533
1408 1404 1400 1398 1397 1393 1396 1398 1400 1403 1408 1413 1418 1423 1428 1434 1437 1442 1447 1453 1457 1463 1469 1473 1478 1482 1485 1489 1493 1496 1499 1502 1504 1508 1510 1512 1514 1518 1520 1523 1525 1526 1527
1402 1399 1395 1391 1389 1389 1389 1388 1390 1392 1397 1402 1408 1411 1418 1423 1427 1432 1437 1443 1449 1455 1460 1466 1469 1475 1477 1482 1486 1490 1494 1496 1499 1502 1504 1507 1508 1510 1513 1514 1516 1518 1519
1396 1393 1390 1386 1385 1381 1379 1378 1380 1381 1387 1391 1396 1401 1406 1412 1416 1422 1428 1433 1440 1446 1452 1457 1460 1466 1470 1474 1479 1483 1487 1489 1492 1495 1497 1500 1502 1504 1506 1507 1508 1510 1510
1390 1387 1384 1381 1379 1377 1375 1370 1371 1375 1373 1380 1385 1391 1396 1401 1406 1411 1418 1423 1431 1438 1442 1448 1451 1457 1461 1464 1469 1476 1480 1484 1487 1489 1491 1494 1496 1497 1499 1499 1500 1501 1502
1386 1382 1378 1375 1373 1370 1365 1357 1359 1355 1365 1367 1373 1380 1385 1391 1397 1402 1408 1416 1421 1428 1433 1438 1442 1448 1453 1459 1465 1468 1474 1476 1479 1483 1485 1487 1488 1489 1491 1492 1493 1493 1493
1380 1377 1373 1370 1365 1361 1356 1353 1353 1351 1351 1355 1363 1369 1374 1378 1387 1394 1400 1408 1414 1420 1425 1430 1433 1440 1446 1452 1458 1461 1466 1470 1473 1476 1478 1479 1481 1482 1484 1484 1485 1484 1484
1376 1372 1367 1362 1357 1352 1347 1343 1342 1343 1342 1347 1352 1357 1365 1368 1375 1385 1390 1398 1405 1412 1416 1422 1428 1435 1441 1448 1451 1456 1460 1463 1467 1469 1471 1470 1473 1474 1476 1475 1476 1476 1476
1371 1366 1361 1356 1352 1350 1344 1343 1335 1329 1330 1332 1339 1346 1352 1359 1366 1376 1379 1387 1397 1403 1410 1416 1422 1429 1436 1440 1446 1448 1451 1455 1457 1460 1464 1463 1465 1466 1467 1467 1466 1466 1466
1366 1362 1356 1351 1346 1341 1336 1333 1329 1328 1325 1324 1330 1336 1339 1347 1354 1365 1371 1377 1387 1394 1401 1409 1416 1422 1428 1433 1437 1441 1444 1447 1451 1454 1458 1459 1458 1460 1458 1457 1458 1458 1457